This is the latest recevied weather packets stored in our database for station/object OE-11007. If no packets are shown the sender has not sent any weather packets the latest 10 day(s).
| Time | Temp. | Humidity | Pressure | Rain* | Wind** | Luminosity | Snow |
|---|---|---|---|---|---|---|---|
| 1787669711 | 16.67° C | 72% | 1013.7 hPa | 0 mm | - | 145 W/m² | - |
| 1787668884 | 17.22° C | 71% | 1013.7 hPa | 0 mm | - | 159 W/m² | - |
| 1787668511 | 17.22° C | 72% | 1013.5 hPa | 0 mm | - | 159 W/m² | - |
| 1787667910 | 16.67° C | 72% | 1013.5 hPa | 0 mm | - | 138 W/m² | - |
| 1787667083 | 16.67° C | 72% | 1013.3 hPa | 0 mm | - | 145 W/m² | - |
| 1787666711 | 17.22° C | 72% | 1013.3 hPa | 0 mm | - | 173 W/m² | - |
| 1787666111 | 17.22° C | 71% | 1013.1 hPa | 0 mm | - | 207 W/m² | - |
| 1787665284 | 17.22° C | 72% | 1013.1 hPa | 0 mm | - | 242 W/m² | - |
| 1787664911 | 17.22° C | 70% | 1013 hPa | 0 mm | - | 263 W/m² | - |
| 1787664311 | 16.67° C | 71% | 1013.1 hPa | 0 mm | - | 249 W/m² | - |
| 1787663484 | 16.67° C | 70% | 1013 hPa | 0 mm | - | 235 W/m² | - |
| 1787663111 | 17.22° C | 71% | 1012.8 hPa | 0 mm | - | 221 W/m² | - |
| 1787662511 | 17.22° C | 72% | 1012.7 hPa | 0 mm | - | 201 W/m² | - |
| 1787661683 | 17.22° C | 71% | 1012.6 hPa | 0 mm | - | 180 W/m² | - |
| 1787661311 | 17.22° C | 71% | 1012.5 hPa | 0 mm | - | 152 W/m² | - |
| 1787660711 | 17.22° C | 68% | 1012.5 hPa | 0 mm | - | 138 W/m² | - |
| 1787660123 | 17.22° C | 68% | 1012.4 hPa | 0 mm | - | 152 W/m² | - |
| 1787659511 | 17.78° C | 68% | 1012.1 hPa | 0 mm | - | 173 W/m² | - |
| 1787658911 | 17.78° C | 67% | 1011.9 hPa | 0 mm | - | 194 W/m² | - |
| 1787658084 | 17.78° C | 67% | 1011.8 hPa | 0 mm | - | 221 W/m² | - |
| 1787657710 | 18.33° C | 67% | 1011.5 hPa | 0 mm | - | 242 W/m² | - |
| 1787657110 | 18.89° C | 61% | 1011.2 hPa | 0 mm | - | 270 W/m² | - |
| 1787654484 | 18.89° C | 59% | 1011.1 hPa | 0 mm | - | 304 W/m² | - |
| 1787652310 | 18.33° C | 58% | 1011 hPa | 0 mm | - | 408 W/m² | - |
| 1787651710 | 18.33° C | 61% | 1010.9 hPa | 0 mm | - | 380 W/m² | - |
* Rain latest hour (hover to see other rain measurements)
** Current wind speed in m/s (hover to see current wind gust speed)